Regional Weather Roundup
Issued by NWS

Home | Current Version | Previous Version | Text Only | Print | Product List | Glossary Off
Versions: 1 2 3 4 5 6 7 8 9 10 11 12 13 14 15 16 17 18 19 20 21 22 23 24 25 26 27 28 29 30 31 32 33 34 35 36 37 38 39 40 41 42 43 44 45 46 47 48 49 50

000
ASUS43 KMPX 191201
RWRMN
WEATHER ROUNDUP FOR MINNESOTA
NATIONAL WEATHER SERVICE TWIN CITIES/CHANHASSEN MN
700 AM CDT FRI SEP 19 2014


NOTE: "FAIR" INDICATES FEW OR NO CLOUDS BELOW 12,000 FEET WITH NO
SIGNIFICANT WEATHER AND/OR OBSTRUCTIONS TO VISIBILITY. N/A MEANS
CURRENT SKY AND/OR WEATHER CONDITIONS ARE NOT AVAILABLE.

MNZ060>063-068>070-191300-
   Twin Cities Metro

CITY           SKY/WX    TMP DP  RH WIND       PRES   REMARKS
TWIN CITIES    CLOUDY    57  51  80 SE8       29.93F
6HR MIN TEMP:  57; 6HR MAX TEMP:  60;

ST PAUL        MOCLDY    57  51  80 SE13      29.94F
CRYSTAL        CLOUDY    60  52  74 SE12      29.90F
BLAINE         CLOUDY    61  54  77 SE12G17   29.91F
LAKEVILLE      MOCLDY    55  52  88 S12       29.93F
EDEN PRAIRIE   CLOUDY    59  53  80 S16       29.90F
6HR MIN TEMP:  57; 6HR MAX TEMP:  60;

SOUTH ST PAUL  MOCLDY    59  50  73 SE13      29.94F
LAKE ELMO      FAIR      55  52  88 S9        29.96F
$$
MNZ001>005-007-008-013>017-022>024-027-028-191300-
   Northwest Minnesota

CITY           SKY/WX    TMP DP  RH WIND       PRES   REMARKS
BEMIDJI        CLOUDY    60  52  74 S13G23    29.70F
HALLOCK        LGT RAIN  63  59  88 S17       29.53F
ROSEAU         CLOUDY    61  55  82 S12       29.59F
WARROAD        CLOUDY    61  57  88 S9        29.59F
THIEF RVR FALL CLOUDY    64  57  77 S21G26    29.61S
CROOKSTON      LGT RAIN  63  57  82 S21G26    29.62S
FOSSTON        CLOUDY    61  54  77 S18G29    29.66F
DETROIT LAKES  CLOUDY    61  54  77 S18G24    29.73F
MOORHEAD       CLOUDY    63  59  88 S14G24    29.66F
PARK RAPIDS    CLOUDY    60  53  77 S13G23    29.77F
MAHNOMEN       FAIR      62  55  78 S22G30    29.67F
$$
MNZ006-009>011-018-025>026-191300-
   North Central Minnesota

CITY           SKY/WX    TMP DP  RH WIND       PRES   REMARKS
BAUDETTE       LGT RAIN  59  56  89 S9        29.63S
FLAG ISLAND    LGT RAIN  61  57  88 S15G22    29.55F
INTL FALLS     CLOUDY    60  52  74 S13G21    29.69S
6HR MIN TEMP:  54; 6HR MAX TEMP:  60; 6HR PCP: TRACE;

WASKISH        CLOUDY    61  55  82 S10       29.67F
BIG FORK       CLOUDY    59  52  77 S13G21    29.75S
LONGVILLE      CLOUDY    59  54  82 S10G22    29.79S
GRAND RAPIDS   CLOUDY    57  52  82 S17       29.80S
CRANE LAKE     CLOUDY    57  52  82 S12G20    29.74F
ORR            CLOUDY    57  50  77 S15G22    29.71F
COOK           CLOUDY    57  52  82 S12G28    29.76F
WALKER         CLOUDY    59  52  78 S15G22    29.74F
$$
MNZ012-019>021-037-191300-
   Northeast Minnesota

CITY           SKY/WX    TMP DP  RH WIND       PRES   REMARKS
DULUTH         CLOUDY    55  51  86 S12       29.88F
6HR MIN TEMP:  52; 6HR MAX TEMP:  55;

ELY            CLOUDY    55  52  88 S17G23    29.79F
HIBBING        CLOUDY    58  52  80 S9G21     29.80F
EVELETH        CLOUDY    57  54  88 S14G20    29.83F
DULUTH HARBOR  CLOUDY    55  52  88 CALM      29.89F
TWO HARBORS    CLOUDY    46  41  81 CALM      29.88F HAZE
SILVER BAY     CLOUDY    45  45 100 CALM      29.88F
GRAND MARAIS     N/A     51  48  89 CALM      29.91F
G MARAIS ARPRT FOG       48  45  87 S7        29.90F VSB 1/4
$$
MNZ029>031-032-039>041-046>048-054>057-064-191300-
   West Central Minnesota

CITY           SKY/WX    TMP DP  RH WIND       PRES   REMARKS
FERGUS FALLS   CLOUDY    61  52  72 S16G22    29.73F
WHEATON        CLOUDY    61  55  82 SE12      29.73F
MORRIS         CLOUDY    63  55  77 S17G23    29.76F
ALEXANDRIA     CLOUDY    60  55  83 S14       29.82F
ELBOW LAKE     FAIR      60  55  83 S17       29.75F
WADENA         CLOUDY    61  54  77 S13G18    29.78F
GLENWOOD       CLOUDY    61  55  82 S15G21    29.83F
APPLETON       CLOUDY    63  55  77 S8        29.78F
BENSON         CLOUDY    61  55  82 S12       29.81F
ORTONVILLE     CLOUDY    61  55  82 S8        29.76F
MADISON        CLOUDY    64  57  77 S12       29.78F
WILLMAR        FAIR      63  55  77 S3        29.86S
$$
MNZ033>034-036-042>043-049>051-058-059-191300-
   Central Minnesota

CITY           SKY/WX    TMP DP  RH WIND       PRES   REMARKS
ST CLOUD       CLOUDY    62  54  74 S12       29.87F
6HR MIN TEMP:  61; 6HR MAX TEMP:  63;

SAUK CENTRE    CLOUDY    59  55  86 S13G18    29.85S
PAYNESVILLE    CLOUDY    57  54  89 SE9G17    29.87R
AITKIN         CLOUDY    61  54  77 S13G21    29.82S
PINE RIVER     CLOUDY    59  54  82 S8        29.84S
BRAINERD       CLOUDY    58  52  80 S10       29.83F
STAPLES        CLOUDY    59  54  82 S13       29.80F
LONG PRAIRIE   DRIZZLE   55  54  94 S12       29.84F
LITTLE FALLS   CLOUDY    61  54  77 S10G17    29.85S
LITCHFIELD     CLOUDY    61  57  88 S5        29.87F
BUFFALO        CLOUDY    59  53  79 SE6G17    29.89F
MAPLE LAKE     CLOUDY    60  55  85 S8        29.88F
$$
MNZ037-044-045-052-053-191300-
   East Central Minnesota

CITY           SKY/WX    TMP DP  RH WIND       PRES   REMARKS
MORA           CLOUDY    55  50  82 S9        29.90F
CAMBRIDGE      CLOUDY    61  50  67 SE8       29.89F
RUSH CITY      CLOUDY    57  52  83 S8        29.91F
MOOSE LAKE     CLOUDY    55  52  88 S10       29.86F
HINCKLEY       FAIR      55  54  94 S9        29.90F
CLOQUET        CLOUDY    55  52  88 S9        29.87F
MCGREGOR       CLOUDY    57  52  82 S14G20    29.84F
$$
MNZ071>073-080-081-089-090-097-098-191300-
   Southwest Minnesota

CITY           SKY/WX    TMP DP  RH WIND       PRES   REMARKS
MONTEVIDEO     CLOUDY    63  57  82 SW10      29.82F
GRANITE FALLS  CLOUDY    61  57  86 S9        29.84F
CANBY          CLOUDY    63  57  82 S9G24     29.79F
MARSHALL       CLOUDY    63  55  77 S15G21    29.83S
REDWOOD FALLS  CLOUDY    62  57  83 S16       29.86F
OLIVIA         CLOUDY    61  55  82 S9G18     29.87R
PIPESTONE      CLOUDY    61  59  94 S13G18    29.85S FOG
WINDOM         CLOUDY    61  57  88 S14G23    29.89S
WORTHINGTON    CLOUDY    61  57  88 S14G23    29.89F
JACKSON        CLOUDY    61  55  82 S12G21    29.91S
TRACY          CLOUDY    62  58  87 SW10G18   29.87R
SLAYTON        CLOUDY    60  58  92 S17       29.87F
$$
MNZ065>067-074>077-082>085-091>093-191300-
   South Central Minnesota

CITY           SKY/WX    TMP DP  RH WIND       PRES   REMARKS
MANKATO        CLOUDY    57  50  77 S12G18    29.92F
NEW ULM        CLOUDY    61  57  88 S12       29.88F
ST JAMES       CLOUDY    61  55  82 SE10G16   29.91F
FAIRMONT       MOCLDY    57  48  72 S13G21    29.91F
GLENCOE        CLOUDY    59  53  78 SE9       29.88F
FARIBAULT      PTCLDY    61  48  63 S12       29.96F
OWATONNA       CLEAR     55  48  76 S14       29.96F
WASECA         PTCLDY    55  46  71 S15G22    29.96F
ALBERT LEA     CLEAR     54  50  87 S12       29.98S
$$
MNZ078>079-086>088-094>096-191300-
   Southeast Minnesota

CITY           SKY/WX    TMP DP  RH WIND       PRES   REMARKS
ROCHESTER      MOCLDY    54  48  80 S14       30.02R
6HR MIN TEMP:  53; 6HR MAX TEMP:  56;

RED WING       PTCLDY    57  50  77 SE6       29.98F
STANTON        PTCLDY    58  49  72 S10       29.94F
DODGE CENTER   PTCLDY    55  50  82 S17       29.98F
WINONA         CLEAR     55  50  82 SE5       30.04R
AUSTIN         CLEAR     54  48  82 S9        30.00S
PRESTON        CLEAR     51  51 100 S8        30.04R
$$
ABBREVIATIONS USED IN REMARKS
   TC - TEMPERATURES IN CELSIUS
  WCI - WIND CHILL INDEX
   HX - HEAT INDEX
  VSB - VISIBILITY
$$



USA.gov is the U.S. government's official web portal to all federal, state and local government web resources and services.